• In Latvia
  • List of Countries
  • For 7 days
  • Water Temperature
  • Satellite Maps
  • Weather Map
  • Weather Widgets
  • user-avatar
    Login

    Hourly Weather Jewłach

    Today, 25 July, Tuesday

    Time Temperature Precipitation Wind Pressure Humidity
    00:00 +27°C° 0 mm 3 mps 756 mmHg 57%
    01:00 +27°C° 0 mm 3 mps 756 mmHg 58%
    02:00 +26°C° 0 mm 2 mps 756 mmHg 60%
    03:00 +26°C° 0 mm 2 mps 756 mmHg 60%
    04:00 +26°C° 0 mm 2 mps 756 mmHg 59%
    05:00 +27°C° 0 mm 2 mps 756 mmHg 57%
    06:00 +27°C° 0 mm 1 mps 756 mmHg 56%
    07:00 +29°C° 0 mm 2 mps 755 mmHg 51%
    08:00 +30°C° 0 mm 2 mps 755 mmHg 46%
    09:00 +32°C° 0 mm 2 mps 755 mmHg 42%
    10:00 +34°C° 0 mm 2 mps 754 mmHg 38%
    11:00 +35°C° 0 mm 2 mps 754 mmHg 35%
    12:00 +37°C° 0 mm 2 mps 754 mmHg 31%
    13:00 +37°C° 0 mm 2 mps 753 mmHg 29%
    14:00 +38°C° 0 mm 2 mps 753 mmHg 28%
    15:00 +39°C° 0 mm 2 mps 752 mmHg 26%
    16:00 +38°C° 0 mm 2 mps 752 mmHg 26%
    17:00 +38°C° 0 mm 2 mps 752 mmHg 26%
    18:00 +38°C° 0 mm 2 mps 752 mmHg 26%
    19:00 +36°C° 0 mm 2 mps 753 mmHg 28%
    20:00 +35°C° 0 mm 2 mps 753 mmHg 31%
    21:00 +33°C° 0 mm 3 mps 754 mmHg 33%
    22:00 +31°C° 0.1 mm 3 mps 754 mmHg 37%
    23:00 +30°C° 0.1 mm 2 mps 754 mmHg 41%

    Tomorrow, 26 July, Wednesday

    Time Temperature Precipitation Wind Pressure Humidity
    00:00 +29°C° 0.1 mm 2 mps 754 mmHg 45%
    01:00 +29°C° 0 mm 2 mps 754 mmHg 46%
    02:00 +28°C° 0 mm 2 mps 754 mmHg 48%
    03:00 +28°C° 0 mm 1 mps 754 mmHg 50%
    04:00 +28°C° 0 mm 1 mps 754 mmHg 48%
    05:00 +29°C° 0 mm 1 mps 755 mmHg 47%
    06:00 +29°C° 0 mm 1 mps 755 mmHg 45%
    07:00 +31°C° 0 mm 2 mps 755 mmHg 41%
    08:00 +32°C° 0 mm 2 mps 754 mmHg 38%
    09:00 +35°C° 0 mm 3 mps 754 mmHg 34%
    10:00 +36°C° 0 mm 2 mps 754 mmHg 31%
    11:00 +37°C° 0 mm 2 mps 754 mmHg 29%
    12:00 +39°C° 0 mm 2 mps 753 mmHg 26%
    13:00 +39°C° 0 mm 2 mps 753 mmHg 26%
    14:00 +40°C° 0 mm 2 mps 753 mmHg 25%
    15:00 +41°C° 0 mm 2 mps 753 mmHg 24%
    16:00 +40°C° 0 mm 2 mps 753 mmHg 24%
    17:00 +40°C° 0 mm 2 mps 753 mmHg 24%
    18:00 +40°C° 0 mm 3 mps 753 mmHg 25%
    19:00 +38°C° 0.1 mm 3 mps 754 mmHg 29%
    20:00 +35°C° 0.1 mm 4 mps 754 mmHg 34%
    21:00 +33°C° 0.1 mm 4 mps 755 mmHg 38%
    22:00 +32°C° 0 mm 4 mps 755 mmHg 40%
    23:00 +31°C° 0 mm 3 mps 756 mmHg 42%

    Day after tomorrow, 27 July, Thursday

    Time Temperature Precipitation Wind Pressure Humidity
    00:00 +30°C° 0 mm 3 mps 756 mmHg 44%
    01:00 +30°C° 0 mm 2 mps 756 mmHg 45%
    02:00 +29°C° 0 mm 2 mps 756 mmHg 46%
    03:00 +29°C° 0 mm 1 mps 756 mmHg 46%
    04:00 +29°C° 0 mm 1 mps 756 mmHg 46%
    05:00 +29°C° 0 mm 1 mps 756 mmHg 45%
    06:00 +30°C° 0 mm 1 mps 757 mmHg 44%
    07:00 +31°C° 0 mm 2 mps 756 mmHg 39%
    08:00 +34°C° 0 mm 2 mps 756 mmHg 35%
    09:00 +36°C° 0 mm 2 mps 756 mmHg 31%
    10:00 +37°C° 0 mm 2 mps 756 mmHg 29%
    11:00 +38°C° 0 mm 2 mps 756 mmHg 27%
    12:00 +39°C° 0 mm 2 mps 755 mmHg 25%
    13:00 +40°C° 0 mm 2 mps 755 mmHg 23%
    14:00 +41°C° 0 mm 2 mps 755 mmHg 22%
    15:00 +42°C° 0 mm 2 mps 754 mmHg 21%
    16:00 +42°C° 0 mm 2 mps 754 mmHg 21%
    17:00 +42°C° 0 mm 3 mps 754 mmHg 21%
    18:00 +42°C° 0 mm 3 mps 755 mmHg 21%
    19:00 +39°C° 0 mm 3 mps 755 mmHg 24%
    20:00 +37°C° 0 mm 4 mps 756 mmHg 27%
    21:00 +35°C° 0 mm 4 mps 756 mmHg 30%
    22:00 +34°C° 0 mm 4 mps 756 mmHg 32%
    23:00 +33°C° 0 mm 3 mps 757 mmHg 34%

    28 July, Friday

    Time Temperature Precipitation Wind Pressure Humidity
    00:00 +31°C° 0 mm 3 mps 757 mmHg 36%
    01:00 +31°C° 0 mm 2 mps 757 mmHg 37%
    02:00 +30°C° 0 mm 2 mps 757 mmHg 37%
    03:00 +30°C° 0 mm 1 mps 757 mmHg 38%
    04:00 +30°C° 0 mm 1 mps 757 mmHg 38%
    05:00 +30°C° 0 mm 1 mps 757 mmHg 37%
    06:00 +31°C° 0 mm 1 mps 757 mmHg 37%
    07:00 +33°C° 0 mm 1 mps 756 mmHg 33%
    08:00 +35°C° 0 mm 2 mps 756 mmHg 30%
    09:00 +37°C° 0 mm 2 mps 756 mmHg 27%
    10:00 +39°C° 0 mm 2 mps 755 mmHg 25%
    11:00 +40°C° 0 mm 2 mps 755 mmHg 23%
    12:00 +41°C° 0 mm 1 mps 754 mmHg 20%
    13:00 +42°C° 0 mm 2 mps 754 mmHg 19%
    14:00 +43°C° 0 mm 2 mps 754 mmHg 19%
    15:00 +43°C° 0 mm 2 mps 753 mmHg 18%
    16:00 +43°C° 0 mm 2 mps 753 mmHg 18%
    17:00 +43°C° 0 mm 2 mps 753 mmHg 18%
    18:00 +43°C° 0 mm 2 mps 753 mmHg 19%
    19:00 +41°C° 0 mm 2 mps 754 mmHg 21%
    20:00 +38°C° 0 mm 3 mps 755 mmHg 24%
    21:00 +36°C° 0 mm 3 mps 755 mmHg 27%
    22:00 +35°C° 0 mm 3 mps 755 mmHg 29%
    23:00 +34°C° 0 mm 3 mps 755 mmHg 32%

    29 July, Saturday

    Time Temperature Precipitation Wind Pressure Humidity
    00:00 +32°C° 0 mm 2 mps 756 mmHg 35%
    01:00 +31°C° 0 mm 2 mps 756 mmHg 36%
    02:00 +31°C° 0 mm 1 mps 756 mmHg 38%
    03:00 +30°C° 0 mm 1 mps 756 mmHg 39%
    04:00 +31°C° 0 mm 1 mps 756 mmHg 38%
    05:00 +31°C° 0 mm 2 mps 756 mmHg 37%
    06:00 +32°C° 0 mm 2 mps 756 mmHg 36%
    07:00 +35°C° 0 mm 2 mps 756 mmHg 31%
    08:00 +37°C° 0 mm 3 mps 755 mmHg 26%
    09:00 +39°C° 0 mm 3 mps 755 mmHg 21%
    10:00 +42°C° 0 mm 3 mps 755 mmHg 19%
    11:00 +43°C° 0 mm 3 mps 754 mmHg 17%
    12:00 +43°C° 0 mm 2 mps 754 mmHg 15%
    13:00 +45°C° 0 mm 2 mps 754 mmHg 15%
    14:00 +46°C° 0 mm 2 mps 753 mmHg 14%
    15:00 +46°C° 0 mm 1 mps 753 mmHg 13%
    16:00 +45°C° 0 mm 1 mps 753 mmHg 14%
    17:00 +45°C° 0 mm 1 mps 753 mmHg 15%
    18:00 +44°C° 0 mm 1 mps 753 mmHg 16%
    19:00 +42°C° 0 mm 1 mps 754 mmHg 18%
    20:00 +40°C° 0 mm 2 mps 755 mmHg 21%
    21:00 +37°C° 0 mm 3 mps 756 mmHg 24%
    22:00 +36°C° 0 mm 3 mps 756 mmHg 27%
    23:00 +35°C° 0 mm 2 mps 756 mmHg 30%

    30 July, Sunday

    Time Temperature Precipitation Wind Pressure Humidity
    00:00 +34°C° 0 mm 2 mps 757 mmHg 34%
    01:00 +34°C° 0 mm 2 mps 757 mmHg 35%
    02:00 +33°C° 0 mm 3 mps 757 mmHg 37%
    03:00 +33°C° 0 mm 3 mps 757 mmHg 38%
    04:00 +33°C° 0 mm 3 mps 758 mmHg 40%
    05:00 +33°C° 0 mm 4 mps 758 mmHg 41%
    06:00 +34°C° 0 mm 4 mps 759 mmHg 42%
    07:00 +36°C° 0 mm 4 mps 759 mmHg 37%
    08:00 +37°C° 0 mm 4 mps 759 mmHg 32%
    09:00 +40°C° 0 mm 4 mps 759 mmHg 27%
    10:00 +40°C° 0 mm 3 mps 759 mmHg 25%
    11:00 +41°C° 0 mm 2 mps 758 mmHg 22%
    12:00 +42°C° 0 mm 2 mps 758 mmHg 20%
    13:00 +43°C° 0 mm 2 mps 758 mmHg 19%
    14:00 +45°C° 0 mm 2 mps 757 mmHg 18%
    15:00 +45°C° 0 mm 3 mps 757 mmHg 17%
    16:00 +45°C° 0.1 mm 4 mps 757 mmHg 19%
    17:00 +44°C° 0.1 mm 4 mps 757 mmHg 20%
    18:00 +45°C° 0.1 mm 5 mps 757 mmHg 21%
    19:00 +41°C° 0 mm 6 mps 758 mmHg 27%
    20:00 +39°C° 0 mm 6 mps 759 mmHg 33%
    21:00 +35°C° 0 mm 7 mps 760 mmHg 38%
    22:00 +35°C° 0 mm 6 mps 760 mmHg 40%
    23:00 +34°C° 0 mm 4 mps 760 mmHg 42%
    Show more